Simultaneous Nadir Overpasses (SNOs) Predictions

Prediction of SNOs between NOAA-19 and NPP Satellite Orbit:

Table of predicted SNOs for the next 14.0 days since TLE Epoch: 1/9/2013
Index Date (NOAA-19) Time (NOAA-19) Lat,Lon (NOAA-19) SZA (NOAA-19 ) Date (NPP) Time (NPP) Lat,Lon (NPP) SZA (NPP ) Distance(km) Time Diff (sec)
1 01/16/2013 02:02:08 -80.42,-119.60 69.14 01/16/2013 02:03:24 -80.74,-120.44 69.04 38.56 76
2 01/16/2013 02:51:29 80.83, 86.47 105.22 01/16/2013 02:52:24 80.83, 86.54 105.18 1.17 55
3 01/16/2013 03:42:26 -80.81,-105.90 74.85 01/16/2013 03:43:08 -80.81,-105.91 74.87 0.18 42
4 01/16/2013 04:33:31 80.78, 61.96 105.06 01/16/2013 04:33:52 80.79, 61.82 105.07 2.61 21
5 01/16/2013 05:24:30 -80.80,-131.12 74.90 01/16/2013 05:24:37 -80.80,-130.98 74.93 2.61 7
6 01/16/2013 06:15:33 80.75, 37.09 104.95 01/16/2013 06:15:19 80.75, 37.10 104.95 0.21 14
7 01/16/2013 07:06:29 -80.72,-154.94 75.17 01/16/2013 07:06:02 -80.72,-155.01 75.15 1.12 27
8 01/16/2013 07:57:36 80.72, 12.21 104.83 01/16/2013 07:56:47 80.72, 12.37 104.84 3.04 49




NCC Satellite Simultaneous Nadir Overpasses (SNOs) Prediction Service
